TimeCST,TemperatureF,Dew PointF,Humidity,Sea Level PressureIn,VisibilityMPH,Wind Direction,Wind SpeedMPH,Gust SpeedMPH,PrecipitationIn,Events,Conditions,WindDirDegrees,DateUTC
12:15 AM,23.7,18.1,79,30.28,5.0,North,6.9,-,N/A,,Haze,10,2014-02-10 06:15:00
12:35 AM,23.5,18.0,79,30.29,7.0,North,5.8,-,N/A,,Mostly Cloudy,10,2014-02-10 06:35:00
12:55 AM,23.5,18.1,80,30.28,5.0,North,6.9,-,N/A,,Haze,10,2014-02-10 06:55:00
1:15 AM,23.5,17.8,79,30.29,5.0,North,6.9,-,N/A,,Haze,360,2014-02-10 07:15:00
1:35 AM,23.4,17.2,77,30.30,7.0,North,8.1,-,N/A,,Overcast,360,2014-02-10 07:35:00
1:55 AM,23.0,16.5,76,30.31,7.0,North,8.1,-,N/A,,Overcast,360,2014-02-10 07:55:00
2:15 AM,22.6,15.8,75,30.30,7.0,North,10.4,-,N/A,,Mostly Cloudy,360,2014-02-10 08:15:00
2:35 AM,21.9,14.5,73,30.30,7.0,North,10.4,-,N/A,,Scattered Clouds,10,2014-02-10 08:35:00
3:00 AM,21.6,13.8,72,30.31,7.0,North,6.9,-,N/A,,Clear,10,2014-02-10 09:00:00
3:15 AM,21.2,12.9,70,30.30,10.0,NNE,5.8,-,N/A,,Clear,20,2014-02-10 09:15:00
3:35 AM,21.0,11.1,66,30.30,10.0,North,10.4,-,N/A,,Clear,10,2014-02-10 09:35:00
3:55 AM,20.8,10.6,65,30.32,10.0,NNE,6.9,-,N/A,,Clear,20,2014-02-10 09:55:00
4:15 AM,20.7,10.8,66,30.33,10.0,North,8.1,-,N/A,,Clear,10,2014-02-10 10:15:00
4:35 AM,20.3,9.3,63,30.33,10.0,North,10.4,-,N/A,,Clear,10,2014-02-10 10:35:00
4:55 AM,20.3,9.5,63,30.34,10.0,North,6.9,-,N/A,,Clear,360,2014-02-10 10:55:00
5:15 AM,20.3,10.2,65,30.35,7.0,NNE,5.8,-,N/A,,Scattered Clouds,20,2014-02-10 11:15:00
5:35 AM,20.1,10.6,67,30.33,7.0,NNE,8.1,-,N/A,,Mostly Cloudy,20,2014-02-10 11:35:00
5:55 AM,20.1,11.1,68,30.33,10.0,North,8.1,-,N/A,,Mostly Cloudy,10,2014-02-10 11:55:00
6:15 AM,20.3,11.5,69,30.35,7.0,North,3.5,-,N/A,,Overcast,360,2014-02-10 12:15:00
6:35 AM,20.3,11.3,68,30.36,7.0,North,10.4,-,N/A,,Overcast,10,2014-02-10 12:35:00
6:55 AM,20.3,11.5,69,30.37,7.0,North,8.1,-,N/A,,Overcast,360,2014-02-10 12:55:00
7:15 AM,20.3,11.8,70,30.39,10.0,North,8.1,-,N/A,,Overcast,360,2014-02-10 13:15:00
7:35 AM,20.3,11.8,70,30.38,7.0,North,5.8,-,N/A,,Overcast,10,2014-02-10 13:35:00
7:55 AM,20.3,12.0,70,30.38,7.0,North,5.8,-,N/A,,Overcast,360,2014-02-10 13:55:00
8:15 AM,20.1,11.8,70,30.39,4.0,North,9.2,-,N/A,Snow,Light Snow,350,2014-02-10 14:15:00
8:35 AM,19.9,11.7,70,30.39,5.0,NNE,10.4,-,N/A,,Haze,20,2014-02-10 14:35:00
8:55 AM,19.8,10.4,67,30.39,7.0,North,10.4,-,N/A,,Overcast,10,2014-02-10 14:55:00
9:15 AM,19.6,10.4,68,30.41,7.0,North,9.2,-,N/A,,Overcast,10,2014-02-10 15:15:00
9:35 AM,19.4,9.5,65,30.42,7.0,NNE,9.2,-,N/A,,Overcast,20,2014-02-10 15:35:00
9:55 AM,19.4,9.3,65,30.42,7.0,NNE,8.1,-,N/A,,Overcast,20,2014-02-10 15:55:00
10:15 AM,19.6,9.7,65,30.42,7.0,North,8.1,-,N/A,,Overcast,10,2014-02-10 16:15:00
10:35 AM,19.4,9.1,64,30.42,7.0,NNW,9.2,-,N/A,,Overcast,340,2014-02-10 16:35:00
10:55 AM,20.1,9.5,63,30.41,7.0,NNW,9.2,-,N/A,,Scattered Clouds,340,2014-02-10 16:55:00
11:15 AM,20.8,9.0,60,30.41,10.0,North,9.2,-,N/A,,Scattered Clouds,350,2014-02-10 17:15:00
11:35 AM,21.2,8.4,58,30.40,10.0,North,8.1,-,N/A,,Scattered Clouds,360,2014-02-10 17:35:00
11:55 AM,21.7,7.9,55,30.39,10.0,NNW,10.4,-,N/A,,Scattered Clouds,340,2014-02-10 17:55:00
12:15 PM,22.3,6.6,51,30.39,10.0,North,9.2,-,N/A,,Scattered Clouds,350,2014-02-10 18:15:00
12:35 PM,22.1,5.9,50,30.38,10.0,North,8.1,-,N/A,,Mostly Cloudy,360,2014-02-10 18:35:00
12:55 PM,22.5,7.3,52,30.37,10.0,North,9.2,-,N/A,,Scattered Clouds,350,2014-02-10 18:55:00
1:15 PM,22.6,6.4,50,30.36,10.0,North,8.1,-,N/A,,Clear,350,2014-02-10 19:15:00
1:35 PM,23.7,6.6,48,30.36,10.0,North,9.2,-,N/A,,Clear,360,2014-02-10 19:35:00
1:55 PM,23.5,5.5,46,30.36,10.0,North,8.1,-,N/A,,Clear,350,2014-02-10 19:55:00
2:15 PM,23.9,6.3,47,30.36,10.0,North,6.9,-,N/A,,Clear,360,2014-02-10 20:15:00
2:35 PM,23.9,5.9,46,30.35,10.0,North,10.4,-,N/A,,Clear,350,2014-02-10 20:35:00
2:55 PM,24.4,5.9,45,30.36,10.0,North,9.2,-,N/A,,Clear,350,2014-02-10 20:55:00
3:15 PM,23.9,6.4,47,30.38,10.0,North,8.1,-,N/A,,Clear,350,2014-02-10 21:15:00
3:35 PM,23.5,5.5,46,30.37,10.0,North,10.4,-,N/A,,Clear,360,2014-02-10 21:35:00
3:55 PM,23.0,5.7,48,30.35,10.0,North,9.2,-,N/A,,Clear,360,2014-02-10 21:55:00
4:15 PM,22.8,7.0,51,30.37,10.0,North,6.9,-,N/A,,Clear,10,2014-02-10 22:15:00
4:35 PM,22.1,7.0,52,30.37,10.0,NNE,5.8,-,N/A,,Clear,20,2014-02-10 22:35:00
4:55 PM,21.2,6.8,54,30.38,10.0,NNE,9.2,-,N/A,,Clear,30,2014-02-10 22:55:00
5:15 PM,20.3,5.7,53,30.39,10.0,NE,5.8,-,N/A,,Clear,40,2014-02-10 23:15:00
5:35 PM,19.6,5.5,55,30.40,10.0,NE,6.9,-,N/A,,Clear,40,2014-02-10 23:35:00
5:55 PM,19.0,5.0,54,30.41,10.0,NNE,5.8,-,N/A,,Clear,30,2014-02-10 23:55:00
6:15 PM,18.3,4.8,56,30.41,10.0,NNE,8.1,-,N/A,,Clear,20,2014-02-11 00:15:00
6:35 PM,17.4,4.6,57,30.40,10.0,NNE,8.1,-,N/A,,Clear,20,2014-02-11 00:35:00
6:55 PM,16.5,3.6,57,30.41,10.0,NNE,9.2,-,N/A,,Clear,30,2014-02-11 00:55:00
7:15 PM,15.8,2.5,56,30.41,10.0,NNE,10.4,-,N/A,,Clear,30,2014-02-11 01:15:00
7:35 PM,15.1,2.3,57,30.41,10.0,NNE,6.9,-,N/A,,Clear,30,2014-02-11 01:35:00
7:55 PM,14.5,1.8,57,30.43,10.0,North,5.8,-,N/A,,Clear,10,2014-02-11 01:55:00
8:15 PM,14.0,1.4,57,30.43,10.0,NNE,5.8,-,N/A,,Clear,30,2014-02-11 02:15:00
8:35 PM,13.8,0.9,56,30.44,10.0,NNE,4.6,-,N/A,,Clear,20,2014-02-11 02:35:00
8:55 PM,13.3,0.5,57,30.44,10.0,Calm,Calm,-,N/A,,Clear,0,2014-02-11 02:55:00
9:15 PM,13.1,0.7,58,30.43,10.0,NNE,4.6,-,N/A,,Clear,20,2014-02-11 03:15:00
9:35 PM,13.1,0.5,57,30.43,10.0,NNE,4.6,-,N/A,,Clear,30,2014-02-11 03:35:00
9:55 PM,12.9,0.5,58,30.43,10.0,North,5.8,-,N/A,,Clear,10,2014-02-11 03:55:00
10:15 PM,12.7,1.0,60,30.43,10.0,North,8.1,-,N/A,,Clear,10,2014-02-11 04:15:00
10:35 PM,12.2,0.7,60,30.43,10.0,NNE,6.9,-,N/A,,Clear,20,2014-02-11 04:35:00
10:55 PM,12.2,0.3,59,30.44,10.0,Calm,Calm,-,N/A,,Clear,0,2014-02-11 04:55:00
11:15 PM,12.0,-0.4,58,30.44,10.0,North,4.6,-,N/A,,Clear,360,2014-02-11 05:15:00
11:35 PM,11.3,-2.6,54,30.44,10.0,North,6.9,-,N/A,,Clear,10,2014-02-11 05:35:00
11:55 PM,10.8,-2.6,55,30.43,10.0,North,5.8,-,N/A,,Clear,360,2014-02-11 05:55:00